CAS500-3

Last updated on Sun Jun 21 2026 00:02:53 GMT+0000 (Coordinated Universal Time)

1 66655U 25274F 26171.37510272 .00000922 00000+0 10546-3 0 9993 2 66655 97.7445 99.3536 0006853 102.0514 258.1471 14.88327389 30628
UTC large
Height (km)
Speed (km/s)
/
Latitude / Longitude
Inclination (degrees)
Orbital Period (minutes)
Azimuth
Elevation
Range (km)
Doppler Factor

Next 0 passes for location: London (51.5072 / 0.1276)

No passes found over London.
CAS500-3